When you browse on this site, cookies collect data to enhance your experience and personalize the content and advertising you see.
Visit our Privacy Policy to learn more. By continuing to use the site, you agree to this use of cookies and data.
  • In France
  • List of Countries
  • For 7 days
  • Water Temperature
  • Satellite Maps
  • Weather Map
  • Weather Widgets
  • user-avatar
    Login

    Hourly Weather Kosice

    Today, 19 June, Wednesday

    Time Temperature Precipitation Wind Pressure Humidity
    00:00 +20°C° 0.2 mm 1 mps 736 mmHg 90%
    01:00 +19°C° 0.2 mm 1 mps 736 mmHg 91%
    02:00 +19°C° 0.1 mm 1 mps 736 mmHg 91%
    03:00 +19°C° 0.1 mm 1 mps 736 mmHg 91%
    04:00 +17°C° 0.1 mm 0 mps 736 mmHg 92%
    05:00 +19°C° 0 mm 0 mps 736 mmHg 89%
    06:00 +20°C° 0 mm 0 mps 736 mmHg 86%
    07:00 +22°C° 0 mm 0 mps 736 mmHg 83%
    08:00 +24°C° 1.1 mm 1 mps 736 mmHg 81%
    09:00 +25°C° 1.1 mm 1 mps 736 mmHg 79%
    10:00 +26°C° 1.1 mm 2 mps 735 mmHg 77%
    11:00 +27°C° 0.8 mm 2 mps 735 mmHg 73%
    12:00 +28°C° 0.8 mm 2 mps 735 mmHg 69%
    13:00 +29°C° 0.8 mm 3 mps 735 mmHg 64%
    14:00 +29°C° 0.3 mm 3 mps 735 mmHg 64%
    15:00 +29°C° 0.3 mm 3 mps 734 mmHg 64%
    16:00 +29°C° 0.3 mm 3 mps 734 mmHg 64%
    17:00 +27°C° 0.1 mm 2 mps 734 mmHg 70%
    18:00 +26°C° 0.1 mm 2 mps 734 mmHg 77%
    19:00 +24°C° 0.1 mm 1 mps 734 mmHg 83%
    20:00 +23°C° 0.1 mm 1 mps 734 mmHg 85%
    21:00 +20°C° 0.1 mm 0 mps 734 mmHg 87%
    22:00 +19°C° 0.1 mm 0 mps 734 mmHg 88%
    23:00 +19°C° 0.2 mm 0 mps 734 mmHg 89%

    Tomorrow, 20 June, Thursday

    Time Temperature Precipitation Wind Pressure Humidity
    00:00 +19°C° 0.2 mm 0 mps 734 mmHg 89%
    01:00 +19°C° 0.2 mm 0 mps 734 mmHg 90%
    02:00 +19°C° 0.1 mm 0 mps 734 mmHg 90%
    03:00 +19°C° 0.1 mm 0 mps 734 mmHg 90%
    04:00 +21°C° 0.1 mm 1 mps 734 mmHg 90%
    05:00 +21°C° 0 mm 1 mps 734 mmHg 88%
    06:00 +22°C° 0 mm 1 mps 734 mmHg 86%
    07:00 +23°C° 0 mm 1 mps 734 mmHg 84%
    08:00 +24°C° 0.3 mm 1 mps 734 mmHg 81%
    09:00 +25°C° 0.3 mm 1 mps 734 mmHg 77%
    10:00 +26°C° 0.3 mm 2 mps 734 mmHg 73%
    11:00 +26°C° 0.6 mm 2 mps 734 mmHg 73%
    12:00 +27°C° 0.6 mm 2 mps 734 mmHg 74%
    13:00 +27°C° 0.6 mm 2 mps 734 mmHg 74%
    14:00 +27°C° 0.1 mm 2 mps 734 mmHg 70%
    15:00 +27°C° 0.1 mm 1 mps 734 mmHg 65%
    16:00 +28°C° 0.1 mm 1 mps 734 mmHg 61%
    17:00 +26°C° 0 mm 1 mps 734 mmHg 67%
    18:00 +25°C° 0 mm 1 mps 734 mmHg 72%
    19:00 +22°C° 0 mm 0 mps 733 mmHg 78%
    20:00 +21°C° 0.1 mm 0 mps 734 mmHg 81%
    21:00 +20°C° 0.1 mm 0 mps 734 mmHg 84%
    22:00 +19°C° 0.1 mm 0 mps 734 mmHg 87%
    23:00 +18°C° 0.1 mm 0 mps 734 mmHg 87%

    Day after tomorrow, 21 June, Friday

    Time Temperature Precipitation Wind Pressure Humidity
    00:00 +18°C° 0.1 mm 0 mps 734 mmHg 88%
    01:00 +20°C° 0.1 mm 1 mps 734 mmHg 89%
    02:00 +18°C° 0.1 mm 0 mps 734 mmHg 89%
    03:00 +18°C° 0.1 mm 0 mps 734 mmHg 90%
    04:00 +17°C° 0.1 mm 0 mps 734 mmHg 90%
    05:00 +19°C° 0.1 mm 0 mps 735 mmHg 87%
    06:00 +20°C° 0.1 mm 0 mps 735 mmHg 85%
    07:00 +22°C° 0.1 mm 0 mps 735 mmHg 82%
    08:00 +25°C° 1.5 mm 1 mps 735 mmHg 81%
    09:00 +25°C° 1.5 mm 1 mps 735 mmHg 80%
    10:00 +26°C° 1.5 mm 1 mps 735 mmHg 80%
    11:00 +27°C° 0.4 mm 2 mps 735 mmHg 75%
    12:00 +28°C° 0.4 mm 2 mps 735 mmHg 70%
    13:00 +28°C° 0.4 mm 2 mps 735 mmHg 64%
    14:00 +28°C° 1.8 mm 2 mps 735 mmHg 69%
    15:00 +27°C° 1.8 mm 2 mps 734 mmHg 74%
    16:00 +27°C° 1.8 mm 1 mps 734 mmHg 79%
    17:00 +26°C° 0.9 mm 1 mps 734 mmHg 82%
    18:00 +25°C° 0.9 mm 1 mps 734 mmHg 84%
    19:00 +22°C° 0.9 mm 0 mps 734 mmHg 86%
    20:00 +21°C° 0.3 mm 0 mps 735 mmHg 87%
    21:00 +22°C° 0.3 mm 1 mps 735 mmHg 88%
    22:00 +21°C° 0.3 mm 1 mps 735 mmHg 89%
    23:00 +21°C° 0.8 mm 1 mps 735 mmHg 91%

    22 June, Saturday

    Time Temperature Precipitation Wind Pressure Humidity
    00:00 +20°C° 0.8 mm 1 mps 735 mmHg 92%
    01:00 +20°C° 0.8 mm 1 mps 735 mmHg 94%
    02:00 +20°C° 0.2 mm 1 mps 735 mmHg 94%
    03:00 +20°C° 0.2 mm 1 mps 735 mmHg 94%
    04:00 +19°C° 0.2 mm 2 mps 735 mmHg 95%
    05:00 +19°C° 0.1 mm 2 mps 735 mmHg 94%
    06:00 +20°C° 0.1 mm 2 mps 735 mmHg 92%
    07:00 +21°C° 0.1 mm 2 mps 736 mmHg 91%
    08:00 +23°C° 0.3 mm 2 mps 736 mmHg 86%
    09:00 +24°C° 0.3 mm 2 mps 736 mmHg 80%
    10:00 +25°C° 0.3 mm 3 mps 736 mmHg 75%
    11:00 +26°C° 0.2 mm 3 mps 736 mmHg 72%
    12:00 +27°C° 0.2 mm 2 mps 736 mmHg 68%
    13:00 +27°C° 0.2 mm 2 mps 736 mmHg 65%
    14:00 +27°C° 1.3 mm 2 mps 735 mmHg 69%
    15:00 +27°C° 1.3 mm 2 mps 735 mmHg 73%
    16:00 +26°C° 1.3 mm 2 mps 735 mmHg 77%
    17:00 +25°C° 0.7 mm 2 mps 735 mmHg 81%
    18:00 +24°C° 0.7 mm 2 mps 735 mmHg 85%
    19:00 +21°C° 0.7 mm 2 mps 735 mmHg 88%
    20:00 +21°C° 0.1 mm 2 mps 735 mmHg 90%
    21:00 +20°C° 0.1 mm 2 mps 735 mmHg 91%
    22:00 +19°C° 0.1 mm 2 mps 735 mmHg 92%
    23:00 +19°C° 0 mm 1 mps 735 mmHg 92%

    23 June, Sunday

    Time Temperature Precipitation Wind Pressure Humidity
    00:00 +19°C° 0 mm 1 mps 735 mmHg 93%
    01:00 +18°C° 0 mm 1 mps 735 mmHg 93%
    02:00 +18°C° 0.1 mm 1 mps 734 mmHg 93%
    03:00 +18°C° 0.1 mm 1 mps 734 mmHg 93%
    04:00 +16°C° 0.1 mm 0 mps 734 mmHg 93%
    05:00 +19°C° 0 mm 1 mps 734 mmHg 90%
    06:00 +21°C° 0 mm 1 mps 735 mmHg 88%
    07:00 +22°C° 0 mm 1 mps 735 mmHg 86%
    08:00 +23°C° 0.3 mm 1 mps 735 mmHg 82%
    09:00 +24°C° 0.3 mm 1 mps 735 mmHg 79%
    10:00 +26°C° 0.3 mm 2 mps 735 mmHg 76%
    11:00 +26°C° 1.7 mm 2 mps 735 mmHg 76%
    12:00 +26°C° 1.7 mm 3 mps 735 mmHg 76%
    13:00 +26°C° 1.7 mm 3 mps 735 mmHg 77%
    14:00 +25°C° 2.2 mm 3 mps 735 mmHg 80%
    15:00 +25°C° 2.2 mm 3 mps 735 mmHg 83%
    16:00 +24°C° 2.2 mm 3 mps 735 mmHg 86%
    17:00 +22°C° 0.2 mm 3 mps 736 mmHg 87%
    18:00 +21°C° 0.2 mm 3 mps 736 mmHg 87%
    19:00 +20°C° 0.2 mm 2 mps 736 mmHg 87%
    20:00 +18°C° 0 mm 2 mps 736 mmHg 87%
    21:00 +17°C° 0 mm 2 mps 737 mmHg 87%
    22:00 +15°C° 0 mm 2 mps 737 mmHg 87%
    23:00 +15°C° 0 mm 2 mps 737 mmHg 87%

    24 June, Monday

    Time Temperature Precipitation Wind Pressure Humidity
    00:00 +15°C° 0 mm 2 mps 738 mmHg 88%
    01:00 +14°C° 0 mm 1 mps 738 mmHg 89%
    02:00 +15°C° 0 mm 1 mps 738 mmHg 87%
    03:00 +15°C° 0 mm 1 mps 738 mmHg 85%
    04:00 +16°C° 0 mm 1 mps 738 mmHg 84%
    05:00 +16°C° 0.1 mm 2 mps 739 mmHg 84%
    06:00 +17°C° 0.1 mm 2 mps 739 mmHg 85%
    07:00 +17°C° 0.1 mm 2 mps 740 mmHg 85%
    08:00 +18°C° 0 mm 3 mps 740 mmHg 80%
    09:00 +18°C° 0 mm 3 mps 740 mmHg 74%
    10:00 +19°C° 0 mm 4 mps 741 mmHg 69%
    11:00 +19°C° 0 mm 4 mps 741 mmHg 67%
    12:00 +20°C° 0 mm 4 mps 741 mmHg 65%
    13:00 +20°C° 0 mm 5 mps 741 mmHg 64%
    14:00 +20°C° 0 mm 5 mps 741 mmHg 63%
    15:00 +20°C° 0 mm 5 mps 741 mmHg 62%
    16:00 +20°C° 0 mm 5 mps 741 mmHg 61%
    17:00 +20°C° 0 mm 4 mps 741 mmHg 65%
    18:00 +19°C° 0 mm 4 mps 741 mmHg 69%
    19:00 +18°C° 0 mm 4 mps 741 mmHg 74%
    20:00 +17°C° 0 mm 3 mps 742 mmHg 75%
    21:00 +16°C° 0 mm 3 mps 742 mmHg 76%
    22:00 +14°C° 0 mm 3 mps 742 mmHg 78%
    23:00 +14°C° 0 mm 3 mps 743 mmHg 80%
    Show more